SAS2517 EKCH-LIBD

Flight info

Callsign SAS2517
Flight time 2h 17m
Altitude 39000
Route SIMEG DCT BALOX M736 SALLO M44 KOGIM DCT MASOR DCT GERGA M725 KOBUS/N0440F380 DCT PIKIB Z36 MAREM/N0444F390 DCT BUDEX DCT TIVAP DCT EPOLA DCT NEMEK DCT NUPSO DCT XOLTA DCT VIE/N0323F190 T415 EKMUR
Aircraft A20N/M-SDE3FGIJ1RWXY/ALB1

Departure

Time 2026-04-21 23:17
Airport Copenhagen Kastrup Airport (EKCH)

Arrival

Time 2026-04-22 01:34
Airport Bari Karol Wojtyła International Airport (LIBD)
Time Latitude Longitude Altitude Speed Heading
2026-04-21 23:12 55.62532 12.64652 26 ft 0 kts 179°
2026-04-21 23:13 55.62498 12.64654 26 ft 7 kts 179°
2026-04-21 23:13 55.62433 12.64660 26 ft 10 kts 175°
2026-04-21 23:13 55.62353 12.64643 26 ft 12 kts 195°
2026-04-21 23:13 55.62286 12.64552 25 ft 13 kts 246°
2026-04-21 23:14 55.62243 12.64389 25 ft 15 kts 228°
2026-04-21 23:14 55.62151 12.64299 26 ft 15 kts 204°
2026-04-21 23:14 55.62051 12.64216 26 ft 16 kts 205°
2026-04-21 23:14 55.61947 12.64128 26 ft 17 kts 206°
2026-04-21 23:15 55.61852 12.64070 23 ft 11 kts 184°
2026-04-21 23:15 55.61772 12.64076 24 ft 12 kts 176°
2026-04-21 23:15 55.61682 12.64086 24 ft 13 kts 177°
2026-04-21 23:15 55.61637 12.64077 24 ft 0 kts 215°
2026-04-21 23:16 55.61624 12.64062 23 ft 3 kts 215°
2026-04-21 23:16 55.61595 12.64024 23 ft 6 kts 217°
2026-04-21 23:16 55.61509 12.63888 23 ft 47 kts 222°
2026-04-21 23:16 55.61038 12.63164 18 ft 128 kts 224°
2026-04-21 23:17 55.60286 12.61979 550 ft 147 kts 227°
2026-04-21 23:17 55.59492 12.60696 1102 ft 167 kts 227°
2026-04-21 23:17 55.58608 12.59213 1799 ft 185 kts 227°
2026-04-21 23:17 55.57617 12.57675 2512 ft 202 kts 224°
2026-04-21 23:18 55.56483 12.56036 3241 ft 221 kts 218°
2026-04-21 23:18 55.55082 12.54730 3911 ft 243 kts 202°
2026-04-21 23:18 55.53422 12.53715 4645 ft 265 kts 198°
2026-04-21 23:18 55.51594 12.52709 5548 ft 281 kts 197°
2026-04-21 23:19 55.49674 12.51644 6702 ft 287 kts 198°
2026-04-21 23:19 55.47736 12.50545 7886 ft 291 kts 198°
2026-04-21 23:19 55.45773 12.49585 8975 ft 295 kts 185°
2026-04-21 23:19 55.43783 12.50084 10006 ft 293 kts 153°
2026-04-21 23:20 55.42189 12.52304 11044 ft 289 kts 123°
2026-04-21 23:20 55.41362 12.55547 12024 ft 288 kts 102°
2026-04-21 23:20 55.40839 12.58984 13031 ft 293 kts 102°
2026-04-21 23:20 55.40292 12.62411 14029 ft 297 kts 102°
2026-04-21 23:21 55.39718 12.65872 15026 ft 300 kts 102°
2026-04-21 23:21 55.39115 12.69431 16011 ft 303 kts 102°
2026-04-21 23:21 55.38505 12.73008 16953 ft 306 kts 102°
2026-04-21 23:21 55.37900 12.76540 17838 ft 310 kts 102°
2026-04-21 23:22 55.37277 12.80165 18741 ft 312 kts 102°
2026-04-21 23:22 55.36647 12.83820 19629 ft 315 kts 101°
2026-04-21 23:22 55.36018 12.87457 20452 ft 319 kts 101°
2026-04-21 23:22 55.35365 12.91225 21270 ft 323 kts 101°
2026-04-21 23:23 55.34701 12.95054 22086 ft 327 kts 101°
2026-04-21 23:23 55.34036 12.98878 22864 ft 330 kts 101°
2026-04-21 23:23 55.33357 13.02779 23627 ft 334 kts 100°
2026-04-21 23:23 55.32671 13.06707 24364 ft 338 kts 100°
2026-04-21 23:24 55.31974 13.10686 25080 ft 341 kts 100°
2026-04-21 23:24 55.31265 13.14738 25787 ft 345 kts 100°
2026-04-21 23:24 55.30552 13.18789 26470 ft 348 kts 100°
2026-04-21 23:24 55.29829 13.22895 27120 ft 352 kts 100°
2026-04-21 23:25 55.29106 13.26977 27742 ft 355 kts 99°
2026-04-21 23:25 55.28370 13.31128 28344 ft 359 kts 99°
2026-04-21 23:25 55.27540 13.35323 28921 ft 368 kts 107°
2026-04-21 23:25 55.26133 13.39363 29485 ft 384 kts 121°
2026-04-21 23:26 55.24158 13.42801 30039 ft 400 kts 134°
2026-04-21 23:26 55.21652 13.45416 30588 ft 416 kts 149°
2026-04-21 23:26 55.18720 13.46895 31111 ft 432 kts 166°
2026-04-21 23:26 55.15598 13.46985 31504 ft 448 kts 182°
2026-04-21 23:27 55.12423 13.45968 31875 ft 455 kts 188°
2026-04-21 23:27 55.09199 13.44724 32414 ft 456 kts 188°
2026-04-21 23:27 55.05994 13.43524 33013 ft 453 kts 188°
2026-04-21 23:27 55.02790 13.42392 33592 ft 451 kts 187°
2026-04-21 23:28 54.99660 13.41311 34138 ft 448 kts 187°
2026-04-21 23:28 54.96514 13.40404 34666 ft 444 kts 183°
2026-04-21 23:28 54.93326 13.39865 35115 ft 441 kts 179°
2026-04-21 23:28 54.90175 13.39723 35488 ft 437 kts 174°
2026-04-21 23:29 54.87046 13.39964 35843 ft 433 kts 170°
2026-04-21 23:29 54.83949 13.40577 36145 ft 431 kts 166°
2026-04-21 23:29 54.80924 13.41418 36352 ft 434 kts 166°
2026-04-21 23:29 54.77796 13.42295 36556 ft 436 kts 166°
2026-04-21 23:30 54.74769 13.43125 36785 ft 438 kts 166°
2026-04-21 23:30 54.71692 13.43951 37030 ft 438 kts 167°
2026-04-21 23:30 54.68586 13.44780 37280 ft 438 kts 167°
2026-04-21 23:30 54.65485 13.45609 37497 ft 439 kts 167°
2026-04-21 23:31 54.62365 13.46441 37689 ft 441 kts 167°
2026-04-21 23:31 54.59195 13.47288 37866 ft 443 kts 167°
2026-04-21 23:31 54.56062 13.48122 38046 ft 444 kts 167°
2026-04-21 23:31 54.52835 13.48980 38252 ft 445 kts 167°
2026-04-21 23:32 54.49700 13.49808 38453 ft 446 kts 168°
2026-04-21 23:32 54.46548 13.50613 38645 ft 447 kts 168°
2026-04-21 23:32 54.43412 13.51402 38840 ft 448 kts 168°
2026-04-21 23:32 54.40225 13.52202 39063 ft 449 kts 168°
2026-04-21 23:33 54.37022 13.53006 39256 ft 451 kts 168°
2026-04-21 23:33 54.33834 13.53808 39294 ft 452 kts 168°
2026-04-21 23:33 54.27521 13.55423 39293 ft 452 kts 168°
2026-04-21 23:34 54.21204 13.57079 39302 ft 453 kts 168°
2026-04-21 23:34 54.14912 13.58722 39304 ft 453 kts 168°
2026-04-21 23:35 54.08578 13.60367 39297 ft 453 kts 168°
2026-04-21 23:35 54.02273 13.62000 39302 ft 453 kts 168°
2026-04-21 23:36 53.96032 13.63608 39310 ft 453 kts 168°
2026-04-21 23:36 53.89708 13.65296 39303 ft 452 kts 167°
2026-04-21 23:37 53.83458 13.67172 39301 ft 452 kts 167°
2026-04-21 23:37 53.77180 13.69055 39303 ft 453 kts 167°
2026-04-21 23:38 53.70963 13.70904 39299 ft 453 kts 167°
2026-04-21 23:38 53.64681 13.72759 39301 ft 453 kts 167°
2026-04-21 23:39 53.58358 13.74619 39301 ft 453 kts 167°
2026-04-21 23:39 53.52085 13.76459 39299 ft 453 kts 167°
2026-04-21 23:40 53.45844 13.78283 39288 ft 453 kts 167°
2026-04-21 23:40 53.39567 13.80112 39300 ft 454 kts 167°
2026-04-21 23:41 53.33338 13.81922 39291 ft 453 kts 167°
2026-04-21 23:41 53.27116 13.83726 39289 ft 454 kts 167°
2026-04-21 23:42 53.20918 13.85515 39294 ft 453 kts 167°
2026-04-21 23:42 53.14675 13.87314 39291 ft 454 kts 167°
2026-04-21 23:43 53.08379 13.89122 39291 ft 454 kts 167°
2026-04-21 23:43 53.02146 13.90907 39288 ft 454 kts 168°
2026-04-21 23:44 52.95944 13.92678 39290 ft 454 kts 167°
2026-04-21 23:44 52.89738 13.94444 39290 ft 454 kts 167°
2026-04-21 23:45 52.80361 13.97105 39289 ft 454 kts 168°
2026-04-21 23:46 52.74099 13.98875 39284 ft 454 kts 168°
2026-04-21 23:46 52.67919 14.00618 39280 ft 454 kts 168°
2026-04-21 23:47 52.61702 14.02364 39281 ft 454 kts 168°
2026-04-21 23:47 52.55493 14.03771 39280 ft 454 kts 170°
2026-04-21 23:48 52.49244 14.05089 39282 ft 454 kts 170°
2026-04-21 23:48 52.42999 14.06402 39280 ft 454 kts 170°
2026-04-21 23:49 52.36764 14.07708 39280 ft 454 kts 171°
2026-04-21 23:49 52.30540 14.09008 39277 ft 453 kts 170°
2026-04-21 23:50 52.24316 14.10314 39278 ft 453 kts 171°
2026-04-21 23:50 52.18073 14.11609 39275 ft 453 kts 171°
2026-04-21 23:51 52.11847 14.12893 39274 ft 453 kts 171°
2026-04-21 23:51 52.05617 14.14176 39274 ft 453 kts 171°
2026-04-21 23:52 51.99388 14.15457 39267 ft 453 kts 171°
2026-04-21 23:52 51.93157 14.16733 39267 ft 453 kts 171°
2026-04-21 23:53 51.86919 14.18006 39266 ft 453 kts 171°
2026-04-21 23:53 51.80630 14.19284 39268 ft 453 kts 171°
2026-04-21 23:54 51.74260 14.20577 39264 ft 452 kts 171°
2026-04-21 23:54 51.67919 14.21864 39260 ft 452 kts 171°
2026-04-21 23:55 51.61514 14.23159 39263 ft 452 kts 171°
2026-04-21 23:55 51.55252 14.23694 39117 ft 454 kts 182°
2026-04-21 23:55 51.52120 14.23135 38874 ft 453 kts 189°
2026-04-21 23:56 51.48991 14.21984 38624 ft 452 kts 196°
2026-04-21 23:56 51.45967 14.20267 38392 ft 452 kts 203°
2026-04-21 23:56 51.43075 14.18009 38271 ft 450 kts 208°
2026-04-21 23:57 51.37612 14.13131 38264 ft 451 kts 210°
2026-04-21 23:57 51.32068 14.08179 38255 ft 451 kts 209°
2026-04-21 23:58 51.26481 14.03245 38248 ft 451 kts 209°
2026-04-21 23:58 51.20964 13.98400 38254 ft 451 kts 209°
2026-04-21 23:59 51.15387 13.93516 38259 ft 451 kts 209°
2026-04-21 23:59 51.09846 13.88681 38265 ft 451 kts 209°
2026-04-22 00:00 51.04258 13.83818 38251 ft 451 kts 209°
2026-04-22 00:00 50.98682 13.78978 38264 ft 450 kts 210°
2026-04-22 00:01 50.93121 13.74186 38254 ft 451 kts 208°
2026-04-22 00:01 50.87187 13.70061 38244 ft 450 kts 200°
2026-04-22 00:02 50.81028 13.67104 38236 ft 449 kts 196°
2026-04-22 00:02 50.74850 13.64984 38226 ft 448 kts 186°
2026-04-22 00:03 50.68601 13.64784 38226 ft 447 kts 174°
2026-04-22 00:03 50.62473 13.66511 38229 ft 447 kts 164°
2026-04-22 00:04 50.56458 13.69035 38231 ft 448 kts 163°
2026-04-22 00:04 50.50446 13.71557 38237 ft 448 kts 164°
2026-04-22 00:05 50.44392 13.74061 38241 ft 448 kts 164°
2026-04-22 00:05 50.38381 13.76531 38239 ft 447 kts 164°
2026-04-22 00:06 50.32352 13.78998 38238 ft 448 kts 164°
2026-04-22 00:06 50.26322 13.81461 38632 ft 450 kts 165°
2026-04-22 00:06 50.23304 13.82690 38984 ft 448 kts 165°
2026-04-22 00:07 50.20298 13.83912 39219 ft 448 kts 165°
2026-04-22 00:07 50.14289 13.86350 39235 ft 447 kts 165°
2026-04-22 00:08 50.08274 13.88784 39240 ft 448 kts 165°
2026-04-22 00:08 50.02287 13.91201 39238 ft 447 kts 165°
2026-04-22 00:09 49.96262 13.93628 39235 ft 447 kts 165°
2026-04-22 00:09 49.90227 13.96051 39235 ft 446 kts 165°
2026-04-22 00:10 49.84209 13.98462 39233 ft 446 kts 165°
2026-04-22 00:10 49.78123 14.00895 39231 ft 446 kts 165°
2026-04-22 00:11 49.72107 14.03294 39225 ft 447 kts 165°
2026-04-22 00:11 49.66076 14.05690 39227 ft 446 kts 165°
2026-04-22 00:12 49.60014 14.08094 39223 ft 446 kts 165°
2026-04-22 00:12 49.54039 14.10458 39221 ft 446 kts 165°
2026-04-22 00:13 49.47996 14.12842 39222 ft 446 kts 165°
2026-04-22 00:13 49.41986 14.15207 39225 ft 446 kts 165°
2026-04-22 00:14 49.35978 14.17566 39222 ft 446 kts 166°
2026-04-22 00:14 49.29993 14.19909 39223 ft 446 kts 166°
2026-04-22 00:15 49.23957 14.22267 39222 ft 446 kts 166°
2026-04-22 00:15 49.17932 14.24615 39222 ft 446 kts 166°
2026-04-22 00:16 49.11920 14.26952 39215 ft 446 kts 166°
2026-04-22 00:16 49.05888 14.29292 39221 ft 446 kts 166°
2026-04-22 00:17 48.99844 14.31628 39218 ft 446 kts 166°
2026-04-22 00:17 48.93723 14.33856 39221 ft 445 kts 169°
2026-04-22 00:18 48.87541 14.35502 39218 ft 446 kts 171°
2026-04-22 00:18 48.81400 14.37119 39210 ft 446 kts 171°
2026-04-22 00:19 48.75277 14.38734 39204 ft 446 kts 170°
2026-04-22 00:19 48.69243 14.40841 39202 ft 447 kts 165°
2026-04-22 00:20 48.63261 14.43296 39199 ft 446 kts 165°
2026-04-22 00:20 48.57187 14.45782 39196 ft 447 kts 165°
2026-04-22 00:21 48.51147 14.48246 39191 ft 447 kts 165°
2026-04-22 00:21 48.45158 14.50681 39192 ft 446 kts 165°
2026-04-22 00:22 48.39105 14.53137 39194 ft 446 kts 165°
2026-04-22 00:22 48.33073 14.55577 39199 ft 446 kts 165°
2026-04-22 00:23 48.27012 14.58023 39205 ft 447 kts 165°
2026-04-22 00:23 48.20930 14.60472 39206 ft 447 kts 165°
2026-04-22 00:24 48.14942 14.62876 39202 ft 446 kts 165°
2026-04-22 00:24 48.08896 14.65299 39194 ft 447 kts 166°
2026-04-22 00:25 48.02861 14.67712 39188 ft 446 kts 166°
2026-04-22 00:25 47.96811 14.70123 39182 ft 447 kts 166°
2026-04-22 00:26 47.90788 14.72520 39168 ft 446 kts 166°
2026-04-22 00:26 47.84795 14.74899 39149 ft 447 kts 166°
2026-04-22 00:27 47.78646 14.77331 39128 ft 447 kts 166°
2026-04-22 00:27 47.72536 14.79747 39110 ft 447 kts 167°
2026-04-22 00:28 47.66425 14.82153 39111 ft 447 kts 167°
2026-04-22 00:28 47.60369 14.84535 39116 ft 447 kts 167°
2026-04-22 00:29 47.54224 14.86946 39115 ft 447 kts 167°
2026-04-22 00:29 47.48102 14.89068 39114 ft 446 kts 172°
2026-04-22 00:30 47.41969 14.90443 39108 ft 445 kts 174°
2026-04-22 00:30 47.35814 14.91788 39100 ft 445 kts 174°
2026-04-22 00:31 47.29661 14.93138 39103 ft 445 kts 174°
2026-04-22 00:31 47.23483 14.94492 39095 ft 445 kts 174°
2026-04-22 00:32 47.17341 14.95836 39091 ft 445 kts 174°
2026-04-22 00:32 47.11104 14.97197 39104 ft 445 kts 174°
2026-04-22 00:33 47.04898 14.98550 39107 ft 444 kts 174°
2026-04-22 00:33 46.98717 14.99893 39120 ft 444 kts 174°
2026-04-22 00:34 46.92584 15.01223 39107 ft 444 kts 174°
2026-04-22 00:34 46.86436 15.02553 39092 ft 444 kts 174°
2026-04-22 00:35 46.80280 15.03880 39082 ft 444 kts 174°
2026-04-22 00:35 46.74120 15.05208 39082 ft 444 kts 174°
2026-04-22 00:36 46.68014 15.06520 39085 ft 444 kts 175°
2026-04-22 00:36 46.61903 15.07831 39093 ft 444 kts 175°
2026-04-22 00:37 46.55790 15.09136 39095 ft 444 kts 175°
2026-04-22 00:37 46.49628 15.10452 39097 ft 444 kts 175°
2026-04-22 00:38 46.43632 15.11729 39099 ft 444 kts 175°
2026-04-22 00:38 46.37544 15.13021 39122 ft 444 kts 175°
2026-04-22 00:39 46.31379 15.14328 39128 ft 444 kts 175°
2026-04-22 00:39 46.25219 15.15631 39149 ft 444 kts 175°
2026-04-22 00:40 46.19070 15.16929 39152 ft 444 kts 175°
2026-04-22 00:40 46.12920 15.18224 39151 ft 443 kts 175°
2026-04-22 00:41 46.06769 15.19515 39143 ft 443 kts 175°
2026-04-22 00:41 46.00616 15.20805 39135 ft 443 kts 175°
2026-04-22 00:42 45.94438 15.22096 39133 ft 443 kts 175°
2026-04-22 00:42 45.88229 15.23394 39140 ft 444 kts 175°
2026-04-22 00:43 45.82075 15.24674 39128 ft 444 kts 175°
2026-04-22 00:43 45.75844 15.25968 39129 ft 445 kts 175°
2026-04-22 00:44 45.69664 15.27251 39127 ft 445 kts 175°
2026-04-22 00:44 45.63496 15.28527 39129 ft 445 kts 176°
2026-04-22 00:45 45.57271 15.29961 39126 ft 448 kts 172°
2026-04-22 00:45 45.51135 15.32231 39125 ft 450 kts 168°
2026-04-22 00:46 45.45095 15.34622 39131 ft 450 kts 168°
2026-04-22 00:46 45.38984 15.37029 39120 ft 451 kts 168°
2026-04-22 00:47 45.32822 15.39446 39119 ft 451 kts 168°
2026-04-22 00:47 45.26662 15.41853 39108 ft 451 kts 168°
2026-04-22 00:48 45.20605 15.44216 39113 ft 451 kts 168°
2026-04-22 00:48 45.14577 15.46561 39110 ft 451 kts 168°
2026-04-22 00:49 45.08527 15.48912 39094 ft 451 kts 168°
2026-04-22 00:49 45.02468 15.51260 39089 ft 451 kts 168°
2026-04-22 00:50 44.96402 15.53605 39089 ft 451 kts 168°
2026-04-22 00:50 44.90357 15.55938 39087 ft 451 kts 169°
2026-04-22 00:51 44.84296 15.58270 39059 ft 452 kts 168°
2026-04-22 00:51 44.78231 15.60600 39073 ft 451 kts 169°
2026-04-22 00:52 44.72122 15.62940 39060 ft 451 kts 168°
2026-04-22 00:52 44.65918 15.65314 39083 ft 451 kts 169°
2026-04-22 00:53 44.59758 15.67664 39053 ft 451 kts 170°
2026-04-22 00:53 44.53577 15.70019 39057 ft 450 kts 170°
2026-04-22 00:54 44.47573 15.72300 39055 ft 450 kts 170°
2026-04-22 00:54 44.41524 15.74592 39034 ft 451 kts 170°
2026-04-22 00:55 44.35507 15.76870 39039 ft 449 kts 170°
2026-04-22 00:55 44.26341 15.80334 39029 ft 449 kts 170°
2026-04-22 00:56 44.20245 15.82617 39030 ft 449 kts 171°
2026-04-22 00:56 44.14111 15.84239 39027 ft 443 kts 179°
2026-04-22 00:57 44.07927 15.84748 39019 ft 436 kts 187°
2026-04-22 00:57 44.01865 15.84360 39035 ft 433 kts 189°
2026-04-22 00:58 43.95818 15.83894 39021 ft 433 kts 190°
2026-04-22 00:58 43.89803 15.83441 39013 ft 433 kts 189°
2026-04-22 00:59 43.83765 15.82995 39021 ft 433 kts 189°
2026-04-22 00:59 43.77739 15.82550 39013 ft 433 kts 190°
2026-04-22 01:00 43.71684 15.82107 39016 ft 432 kts 190°
2026-04-22 01:00 43.65709 15.81668 39030 ft 433 kts 190°
2026-04-22 01:01 43.59699 15.81231 39040 ft 432 kts 190°
2026-04-22 01:01 43.53685 15.80791 39018 ft 432 kts 190°
2026-04-22 01:02 43.47654 15.80351 39016 ft 433 kts 190°
2026-04-22 01:02 43.41587 15.79913 39011 ft 432 kts 190°
2026-04-22 01:03 43.35519 15.79472 38999 ft 432 kts 190°
2026-04-22 01:03 43.29378 15.79028 39018 ft 432 kts 190°
2026-04-22 01:04 43.23289 15.78588 39002 ft 432 kts 190°
2026-04-22 01:04 43.17299 15.78158 39004 ft 432 kts 190°
2026-04-22 01:05 43.11311 15.77727 38996 ft 432 kts 190°
2026-04-22 01:05 43.05299 15.77296 38995 ft 432 kts 190°
2026-04-22 01:06 42.99343 15.76871 38992 ft 432 kts 190°
2026-04-22 01:06 42.93310 15.76439 38959 ft 433 kts 190°
2026-04-22 01:07 42.90291 15.76222 38435 ft 440 kts 190°
2026-04-22 01:07 42.87219 15.76000 37618 ft 446 kts 191°
2026-04-22 01:07 42.84067 15.75779 36904 ft 447 kts 191°
2026-04-22 01:07 42.81021 15.75565 36318 ft 447 kts 191°
2026-04-22 01:08 42.77822 15.75341 35852 ft 447 kts 191°
2026-04-22 01:08 42.74663 15.75261 35284 ft 451 kts 187°
2026-04-22 01:08 42.71491 15.75468 34676 ft 456 kts 183°
2026-04-22 01:08 42.68293 15.75990 33965 ft 461 kts 178°
2026-04-22 01:09 42.65137 15.76820 33253 ft 465 kts 174°
2026-04-22 01:09 42.61949 15.77961 32484 ft 469 kts 171°
2026-04-22 01:09 42.58760 15.79198 31706 ft 470 kts 171°
2026-04-22 01:09 42.55583 15.80441 30935 ft 470 kts 171°
2026-04-22 01:10 42.52438 15.81667 30348 ft 465 kts 171°
2026-04-22 01:10 42.49321 15.82874 29772 ft 459 kts 171°
2026-04-22 01:10 42.46250 15.84057 29064 ft 457 kts 171°
2026-04-22 01:10 42.43152 15.85244 28452 ft 452 kts 171°
2026-04-22 01:11 42.40112 15.86406 27914 ft 446 kts 171°
2026-04-22 01:11 42.37095 15.87558 27387 ft 441 kts 171°
2026-04-22 01:11 42.34160 15.88677 26901 ft 435 kts 171°
2026-04-22 01:11 42.31264 15.89781 26403 ft 430 kts 171°
2026-04-22 01:12 42.28346 15.90889 25896 ft 425 kts 171°
2026-04-22 01:12 42.25509 15.91965 25401 ft 421 kts 171°
2026-04-22 01:12 42.22648 15.93051 24934 ft 416 kts 171°
2026-04-22 01:12 42.19862 15.94107 24443 ft 413 kts 171°
2026-04-22 01:13 42.17083 15.95158 23951 ft 410 kts 171°
2026-04-22 01:13 42.14351 15.96192 23466 ft 407 kts 171°
2026-04-22 01:13 42.11612 15.97228 23006 ft 404 kts 171°
2026-04-22 01:13 42.08947 15.98235 22571 ft 401 kts 171°
2026-04-22 01:14 42.06276 15.99244 22144 ft 397 kts 171°
2026-04-22 01:14 42.03627 16.00244 21700 ft 394 kts 171°
2026-04-22 01:14 42.00986 16.01241 21254 ft 391 kts 171°
2026-04-22 01:14 41.98397 16.02216 20816 ft 388 kts 171°
2026-04-22 01:15 41.95832 16.03182 20382 ft 384 kts 171°
2026-04-22 01:15 41.93272 16.04158 19928 ft 383 kts 169°
2026-04-22 01:15 41.90780 16.05528 19479 ft 387 kts 158°
2026-04-22 01:15 41.88480 16.07420 19043 ft 388 kts 150°
2026-04-22 01:16 41.86274 16.09527 18616 ft 386 kts 149°
2026-04-22 01:16 41.84102 16.11656 18192 ft 382 kts 148°
2026-04-22 01:16 41.81983 16.13725 17779 ft 379 kts 149°
2026-04-22 01:16 41.79862 16.15781 17369 ft 376 kts 148°
2026-04-22 01:17 41.77756 16.17807 16972 ft 372 kts 148°
2026-04-22 01:17 41.75664 16.19813 16564 ft 369 kts 148°
2026-04-22 01:17 41.73561 16.21823 16146 ft 366 kts 148°
2026-04-22 01:17 41.71507 16.23785 15739 ft 363 kts 148°
2026-04-22 01:18 41.69472 16.25724 15340 ft 360 kts 148°
2026-04-22 01:18 41.67449 16.27651 14942 ft 358 kts 147°
2026-04-22 01:18 41.65409 16.29593 14537 ft 355 kts 147°
2026-04-22 01:18 41.63413 16.31492 14139 ft 352 kts 147°
2026-04-22 01:19 41.61440 16.33366 13740 ft 350 kts 147°
2026-04-22 01:19 41.59473 16.35235 13336 ft 347 kts 147°
2026-04-22 01:19 41.57520 16.37090 12916 ft 345 kts 147°
2026-04-22 01:19 41.55570 16.38941 12502 ft 342 kts 147°
2026-04-22 01:20 41.53633 16.40777 12082 ft 339 kts 146°
2026-04-22 01:20 41.51728 16.42581 11663 ft 337 kts 146°
2026-04-22 01:20 41.49825 16.44384 11238 ft 335 kts 146°
2026-04-22 01:20 41.47939 16.46166 10821 ft 333 kts 146°
2026-04-22 01:21 41.46063 16.47939 10400 ft 331 kts 146°
2026-04-22 01:21 41.44188 16.49709 10030 ft 326 kts 146°
2026-04-22 01:21 41.42390 16.51434 9752 ft 319 kts 142°
2026-04-22 01:21 41.40849 16.53526 9381 ft 317 kts 127°
2026-04-22 01:22 41.39644 16.55970 9023 ft 312 kts 121°
2026-04-22 01:22 41.38543 16.58445 8665 ft 308 kts 120°
2026-04-22 01:22 41.37482 16.60862 8314 ft 304 kts 120°
2026-04-22 01:22 41.36403 16.63288 7961 ft 301 kts 120°
2026-04-22 01:23 41.35328 16.65678 7606 ft 297 kts 121°
2026-04-22 01:23 41.34264 16.68027 7253 ft 294 kts 121°
2026-04-22 01:23 41.33209 16.70343 6902 ft 291 kts 121°
2026-04-22 01:23 41.32167 16.72623 6558 ft 287 kts 121°
2026-04-22 01:24 41.31142 16.74863 6217 ft 284 kts 121°
2026-04-22 01:24 41.30124 16.77084 5874 ft 282 kts 121°
2026-04-22 01:24 41.29096 16.79326 5523 ft 279 kts 120°
2026-04-22 01:24 41.28088 16.81536 5172 ft 277 kts 118°
2026-04-22 01:25 41.27519 16.83926 4796 ft 270 kts 87°
2026-04-22 01:25 41.27940 16.86269 4476 ft 261 kts 65°
2026-04-22 01:25 41.28630 16.88466 4194 ft 256 kts 64°
2026-04-22 01:25 41.29289 16.90630 4092 ft 244 kts 65°
2026-04-22 01:26 41.29887 16.92667 4002 ft 232 kts 66°
2026-04-22 01:26 41.30451 16.94630 3974 ft 230 kts 66°
2026-04-22 01:26 41.31021 16.96636 3970 ft 231 kts 66°
2026-04-22 01:26 41.31595 16.98673 3968 ft 232 kts 66°
2026-04-22 01:27 41.32108 17.00704 3962 ft 235 kts 77°
2026-04-22 01:27 41.31890 17.02861 3956 ft 242 kts 116°
2026-04-22 01:27 41.30725 17.04451 3961 ft 245 kts 153°
2026-04-22 01:27 41.29097 17.05075 3971 ft 246 kts 170°
2026-04-22 01:28 41.27405 17.05480 3967 ft 245 kts 170°
2026-04-22 01:28 41.25736 17.05899 3964 ft 245 kts 169°
2026-04-22 01:28 41.24060 17.06349 3963 ft 244 kts 169°
2026-04-22 01:28 41.22409 17.06547 3941 ft 228 kts 194°
2026-04-22 01:29 41.21148 17.05579 3938 ft 205 kts 238°
2026-04-22 01:29 41.20709 17.03854 3967 ft 198 kts 267°
2026-04-22 01:29 41.20601 17.02045 3908 ft 193 kts 270°
2026-04-22 01:29 41.20448 17.00273 3657 ft 194 kts 263°
2026-04-22 01:30 41.20122 16.98519 3396 ft 195 kts 257°
2026-04-22 01:30 41.19727 16.96840 3230 ft 189 kts 256°
2026-04-22 01:30 41.19286 16.95175 2955 ft 188 kts 254°
2026-04-22 01:30 41.18836 16.93573 2682 ft 186 kts 253°
2026-04-22 01:31 41.18379 16.91981 2415 ft 182 kts 253°
2026-04-22 01:31 41.17937 16.90444 2188 ft 176 kts 253°
2026-04-22 01:31 41.17511 16.88958 1952 ft 167 kts 253°
2026-04-22 01:31 41.17090 16.87477 1720 ft 166 kts 253°
2026-04-22 01:32 41.16681 16.86037 1501 ft 165 kts 253°
2026-04-22 01:32 41.16279 16.84622 1287 ft 162 kts 253°
2026-04-22 01:32 41.15900 16.83295 1066 ft 147 kts 252°
2026-04-22 01:32 41.15555 16.82080 868 ft 134 kts 252°
2026-04-22 01:33 41.15228 16.80922 705 ft 134 kts 252°
2026-04-22 01:33 41.14901 16.79767 533 ft 133 kts 251°
2026-04-22 01:33 41.14588 16.78664 361 ft 132 kts 251°
2026-04-22 01:33 41.14288 16.77601 199 ft 131 kts 251°
2026-04-22 01:34 41.13983 16.76508 141 ft 116 kts 251°
2026-04-22 01:34 41.13752 16.75714 158 ft 67 kts 251°
2026-04-22 01:34 41.13641 16.75310 167 ft 35 kts 250°
2026-04-22 01:34 41.13562 16.75024 176 ft 30 kts 249°
2026-04-22 01:35 41.13497 16.74794 183 ft 21 kts 248°
2026-04-22 01:35 41.13396 16.74757 185 ft 17 kts 135°
2026-04-22 01:35 41.13345 16.74911 181 ft 19 kts 91°
2026-04-22 01:35 41.13391 16.75091 176 ft 21 kts 67°
2026-04-22 01:36 41.13448 16.75291 170 ft 24 kts 69°
2026-04-22 01:36 41.13513 16.75511 164 ft 26 kts 69°
2026-04-22 01:36 41.13558 16.75681 160 ft 15 kts 70°
2026-04-22 01:36 41.13600 16.75829 157 ft 18 kts 69°
2026-04-22 01:37 41.13641 16.75981 154 ft 14 kts 85°
2026-04-22 01:37 41.13593 16.76072 153 ft 12 kts 144°
2026-04-22 01:37 41.13553 16.76161 152 ft 10 kts 82°
2026-04-22 01:37 41.13572 16.76241 150 ft 5 kts 75°
2026-04-22 01:38 41.13549 16.76276 150 ft 4 kts 166°
2026-04-22 01:38 41.13520 16.76288 150 ft 3 kts 160°
2026-04-22 01:38 41.13510 16.76293 150 ft 0 kts 160°